Fallon Nas (Van Voorhis Fld) Information

FAA: NFL - ICAO: KNFL

Fallon Nas (Van Voorhis Fld) (Airport) Location

State Nevada
County Churchill
City Fallon
Fallon Nas (Van Voorhis Fld) (Airport) is 3 miles northeast of Fallon, NV.
Latitude 39-25-04.1900N
Longitude 118-41-54.9180W
Elevation 3,934ft

Fallon Nas (Van Voorhis Fld) METARs

METAR KNFL 121456Z 00000KT 10SM CLR 21/06 A3012 RMK SLP166 T02110061 53011
Altimeter 30.12"
Temperature 21.1°C (70.0°F)
Wind 0° at 0KT
Clouds Skies are clear.
Visibility 10.0mi
Time observed: 2022-08-12T14:56:00Z

Fallon Nas (Van Voorhis Fld) (Airport) Details

Status Operational
Activation December 1942
Ownership Military - Navy
Usage Private
Chart SAN FRANCISCO
ATC on-site Yes
Beacon schedule sunset-sunrise
Beacon color split clear green

Fallon Nas (Van Voorhis Fld) (Airport) Contacts

Owner US NAVY
Owner address OCEANOGRAPHIC OFC - CODE 3142, WASHINGTON, DC 20373
Owner phone N/A
Manager LANCE WOOLF
Manager address 1600 MEDICAL PARKWAY, CARSON CITY, NV 89702
Manager phone 775-445-8023

Fallon Nas (Van Voorhis Fld) Radio Frequencies

Fallon Nas (Van Voorhis Fld) (Airport) Radio Frequencies

UNICOM N/A
Common traffic advisory frequency (CTAF) N/A